Canby, MN

10:36 PM CDT on April 27, 2017 (GMT -0500)
Canby

Weather History for KCNB - September, 2013

Change the Weather History Date:

Friday, September 27, 2013

  Actual Average (KMML) Record (KMML)
Temperature  
Mean Temperature 68 °F -  
Max Temperature 80 °F 68 °F 93 °F (1956)
Min Temperature 57 °F 43 °F 30 °F (1965)
Cooling Degree Days 3    
Growing Degree Days 18 (Base 50)    
Moisture  
Dew Point 60 °F    
Average Humidity 68    
Maximum Humidity 85    
Minimum Humidity 51    
Precipitation  
Precipitation 0.00 in - - ()
Sea Level Pressure  
Sea Level Pressure 29.74 in    
Wind  
Wind Speed 12 mph (South)    
Max Wind Speed 21 mph    
Max Gust Speed 30 mph    
Visibility 10 miles    
Events Rain , Thunderstorm    
Averages and records for this station are not official NWS values.
T = Trace of Precipitation, MM = Missing Value Source: NWS Daily Summary

Daily Weather History Graph

Daily Weather History Graph

Search for Another Location

Airport or City:

Trip Planner

Search our weather history database for the weather conditions in past years. The results will help you decide how hot, cold, wet, or windy it might be!

Date:

Astronomy

Sep. 27, 2013 Rise Set
Actual Time 7:18 AM CDT 7:12 PM CDT
Civil Twilight 6:49 AM CDT 7:41 PM CDT
Nautical Twilight 6:15 AM CDT 8:15 PM CDT
Astronomical Twilight 5:40 AM CDT 8:50 PM CDT
Moon 12:01 AM CDT (9/27) 3:04 PM CDT (9/27)
Length of Visible Light 12h 52m
Length of Day
11h 54m
Last Quarter, 45% of the Moon is Illuminated
Sep 27
Last Quarter
Oct 4
New
Oct 11
First Quarter
Oct 18
Full
Oct 26
Last Quarter

Hourly Weather History & Observations

Time (CDT) Temp. Dew Point Humidity Pressure Visibility Wind Dir Wind Speed Gust Speed Precip Events Conditions
12:13 AM 71.2 °F 58.1 °F 63% 29.78 in 10.0 mi SSE 11.5 mph - N/A   Clear
12:34 AM 73.4 °F 57.7 °F 58% 29.78 in 10.0 mi SSE 12.7 mph 19.6 mph N/A   Clear
12:54 AM 73.4 °F 57.7 °F 58% 29.78 in 10.0 mi South 16.1 mph 19.6 mph N/A   Clear
1:14 AM 72.7 °F 58.1 °F 60% 29.77 in 10.0 mi South 13.8 mph 18.4 mph N/A   Clear
1:33 AM 72.7 °F 58.1 °F 60% 29.77 in 10.0 mi South 13.8 mph 20.7 mph N/A   Clear
1:54 AM 72.5 °F 58.1 °F 60% 29.77 in 10.0 mi South 9.2 mph 21.9 mph N/A   Clear
2:14 AM 71.8 °F 58.1 °F 62% 29.77 in 10.0 mi SSE 9.2 mph 16.1 mph N/A   Clear
2:34 AM 72.1 °F 58.1 °F 61% 29.76 in 10.0 mi SSE 12.7 mph 20.7 mph N/A   Clear
2:54 AM 71.6 °F 58.3 °F 63% 29.75 in 10.0 mi SSE 12.7 mph 21.9 mph N/A   Clear
3:14 AM 71.4 °F 58.5 °F 64% 29.74 in 10.0 mi SSE 9.2 mph 17.3 mph N/A   Clear
3:33 AM 71.8 °F 58.8 °F 64% 29.73 in 10.0 mi SSE 11.5 mph 19.6 mph N/A   Scattered Clouds
3:54 AM 72.7 °F 58.6 °F 61% 29.73 in 10.0 mi SSE 15.0 mph 18.4 mph N/A   Mostly Cloudy
4:14 AM 72.7 °F 58.6 °F 61% 29.73 in 10.0 mi SSE 13.8 mph 19.6 mph N/A   Mostly Cloudy
4:34 AM 73.4 °F 58.6 °F 60% 29.74 in 10.0 mi South 15.0 mph 26.5 mph N/A   Overcast
4:53 AM 72.5 °F 59.5 °F 64% 29.75 in 10.0 mi South 20.7 mph 29.9 mph N/A Rain Rain
5:14 AM 68.9 °F 61.3 °F 77% 29.75 in 10.0 mi South 16.1 mph 21.9 mph N/A Rain Light Rain
5:34 AM 69.3 °F 61.5 °F 76% 29.74 in 10.0 mi South 12.7 mph 20.7 mph N/A Rain Light Rain
5:54 AM 70.3 °F 61.0 °F 72% 29.74 in 10.0 mi South 11.5 mph 17.3 mph N/A   Mostly Cloudy
6:13 AM 68.9 °F 61.7 °F 78% 29.75 in 10.0 mi South 10.4 mph 17.3 mph N/A   Mostly Cloudy
6:34 AM 68.4 °F 61.5 °F 79% 29.75 in 10.0 mi South 9.2 mph - N/A   Mostly Cloudy
6:53 AM 68.2 °F 61.3 °F 79% 29.75 in 10.0 mi South 11.5 mph 17.3 mph N/A   Scattered Clouds
7:14 AM 67.1 °F 61.3 °F 82% 29.74 in 10.0 mi SE 9.2 mph - N/A   Clear
7:34 AM 66.2 °F 61.5 °F 85% 29.75 in 10.0 mi SE 9.2 mph - N/A   Clear
7:53 AM 66.0 °F 61.5 °F 85% 29.75 in 10.0 mi SE 10.4 mph - N/A   Clear
8:14 AM 66.7 °F 61.7 °F 84% 29.75 in 10.0 mi SE 10.4 mph - N/A   Clear
8:34 AM 68.5 °F 61.9 °F 79% 29.74 in 10.0 mi SSE 13.8 mph 18.4 mph N/A   Clear
8:54 AM 69.4 °F 61.7 °F 76% 29.75 in 10.0 mi SSE 13.8 mph 20.7 mph N/A   Clear
9:14 AM 70.5 °F 61.5 °F 73% 29.74 in 10.0 mi SSE 16.1 mph 25.3 mph N/A   Clear
9:34 AM 69.1 °F 61.9 °F 78% 29.75 in 10.0 mi SSE 13.8 mph 23.0 mph N/A Rain , Thunderstorm Light Thunderstorms and Rain
9:54 AM 69.1 °F 62.6 °F 80% 29.74 in 10.0 mi SE 11.5 mph - N/A   Overcast
10:14 AM 69.8 °F 62.6 °F 78% 29.74 in 10.0 mi SSE 10.4 mph - N/A   Scattered Clouds
10:34 AM 68.7 °F 62.8 °F 81% 29.76 in 10.0 mi South 10.4 mph 17.3 mph N/A Rain Light Rain
10:54 AM 70.7 °F 62.8 °F 76% 29.73 in 10.0 mi SSE 10.4 mph - N/A   Scattered Clouds
11:13 AM 70.9 °F 63.1 °F 76% 29.75 in 10.0 mi South 5.8 mph - N/A Rain Light Rain
11:34 AM 71.1 °F 62.1 °F 73% 29.75 in 10.0 mi SSE 8.1 mph - N/A Thunderstorm Scattered Clouds
11:54 AM 72.7 °F 62.6 °F 71% 29.74 in 10.0 mi South 11.5 mph 17.3 mph N/A Thunderstorm Scattered Clouds
12:14 PM 73.8 °F 62.1 °F 67% 29.73 in 10.0 mi SSE 12.7 mph 20.7 mph N/A   Mostly Cloudy
12:34 PM 75.7 °F 61.9 °F 62% 29.72 in 10.0 mi South 15.0 mph 21.9 mph N/A   Overcast
12:53 PM 76.1 °F 62.1 °F 62% 29.72 in 10.0 mi South 13.8 mph 21.9 mph N/A Thunderstorm Scattered Clouds
1:14 PM 77.0 °F 61.7 °F 59% 29.72 in 10.0 mi South 9.2 mph 20.7 mph N/A   Clear
1:33 PM 77.9 °F 61.5 °F 57% 29.72 in 10.0 mi South 13.8 mph 20.7 mph N/A   Clear
1:54 PM 77.9 °F 60.8 °F 56% 29.71 in 10.0 mi South 10.4 mph 25.3 mph N/A   Clear
2:14 PM 78.3 °F 60.8 °F 55% 29.71 in 10.0 mi South 17.3 mph 26.5 mph N/A   Scattered Clouds
2:34 PM 78.3 °F 61.0 °F 55% 29.72 in 10.0 mi South 13.8 mph 19.6 mph N/A   Scattered Clouds
2:54 PM 79.5 °F 60.1 °F 51% 29.73 in 10.0 mi SSW 13.8 mph 21.9 mph N/A   Scattered Clouds
3:13 PM 78.8 °F 60.1 °F 53% 29.75 in 10.0 mi SSW 17.3 mph 21.9 mph N/A   Mostly Cloudy
3:34 PM 78.8 °F 59.9 °F 52% 29.74 in 10.0 mi South 17.3 mph 23.0 mph N/A   Mostly Cloudy
3:54 PM 77.9 °F 59.9 °F 54% 29.73 in 10.0 mi South 10.4 mph 24.2 mph N/A Rain Light Rain
4:13 PM 75.2 °F 61.7 °F 63% 29.69 in 10.0 mi SSE 6.9 mph - N/A Rain Light Rain
4:34 PM 75.0 °F 61.7 °F 63% 29.72 in 10.0 mi SSE 11.5 mph 18.4 mph N/A   Scattered Clouds
4:54 PM 76.8 °F 60.8 °F 58% 29.73 in 10.0 mi South 9.2 mph 19.6 mph N/A   Scattered Clouds
5:14 PM 77.4 °F 60.4 °F 56% 29.75 in 10.0 mi South 9.2 mph 16.1 mph N/A   Clear
5:33 PM 77.9 °F 60.3 °F 54% 29.75 in 10.0 mi South 8.1 mph - N/A   Clear
5:54 PM 77.9 °F 60.1 °F 54% 29.74 in 10.0 mi South 9.2 mph - N/A   Clear
6:14 PM 77.4 °F 59.9 °F 55% 29.74 in 10.0 mi South 8.1 mph - N/A   Clear
6:34 PM 76.6 °F 60.4 °F 57% 29.74 in 10.0 mi South 4.6 mph - N/A   Clear
6:53 PM 76.1 °F 60.6 °F 59% 29.73 in 10.0 mi South 3.5 mph - N/A   Scattered Clouds
7:14 PM 75.2 °F 61.0 °F 61% 29.73 in 10.0 mi Calm Calm - N/A   Mostly Cloudy
7:34 PM 73.0 °F 61.3 °F 67% 29.74 in 10.0 mi West 6.9 mph - N/A   Scattered Clouds
7:53 PM 70.5 °F 60.1 °F 69% 29.74 in 10.0 mi WNW 8.1 mph - N/A   Clear
8:14 PM 68.9 °F 58.1 °F 68% 29.75 in 10.0 mi West 6.9 mph - N/A   Clear
8:33 PM 67.6 °F 58.5 °F 72% 29.75 in 10.0 mi WNW 5.8 mph - N/A   Clear
8:54 PM 66.7 °F 57.7 °F 73% 29.75 in 10.0 mi NNW 10.4 mph - N/A   Clear
9:14 PM 64.6 °F 57.0 °F 76% 29.76 in 10.0 mi NNW 5.8 mph - N/A   Clear
9:33 PM 63.1 °F 55.8 °F 77% 29.76 in 10.0 mi North 9.2 mph - N/A   Clear
9:53 PM 62.2 °F 55.4 °F 78% 29.76 in 10.0 mi North 3.5 mph - N/A   Scattered Clouds
10:14 PM 61.2 °F 54.7 °F 79% 29.77 in 10.0 mi WNW 12.7 mph - N/A   Scattered Clouds
10:34 PM 59.9 °F 53.6 °F 80% 29.77 in 10.0 mi NNW 10.4 mph - N/A   Mostly Cloudy
10:53 PM 59.0 °F 53.1 °F 81% 29.77 in 10.0 mi NW 9.2 mph - N/A   Scattered Clouds
11:14 PM 58.3 °F 52.7 °F 82% 29.75 in 10.0 mi NNW 6.9 mph - N/A   Scattered Clouds
11:34 PM 57.7 °F 52.5 °F 83% 29.74 in 10.0 mi NNE 6.9 mph - N/A   Scattered Clouds
11:54 PM 57.2 °F 52.2 °F 83% 29.74 in 10.0 mi NNW 8.1 mph - N/A   Scattered Clouds